This is the latest recevied weather packets stored in our database for station/object OK1LPD-6. If no packets are shown the sender has not sent any weather packets the latest 10 day(s).
| Time | Temp. | Humidity | Pressure | Rain* | Wind** | Luminosity | Snow |
|---|---|---|---|---|---|---|---|
| 1787737004 | 21.67° C | 58% | 1019.1 hPa | 0 mm | - | - | - |
| 1787736404 | 22.22° C | 58% | 1019.2 hPa | 0 mm | - | - | - |
| 1787735816 | 21.67° C | 57% | 1019.5 hPa | 0 mm | - | - | - |
| 1787735205 | 21.67° C | 60% | 1019.6 hPa | 0 mm | - | - | - |
| 1787734605 | 20.56° C | 61% | 1019.4 hPa | 0 mm | - | - | - |
| 1787734015 | 20.56° C | 62% | 1019.5 hPa | 0 mm | - | - | - |
| 1787733405 | 20° C | 63% | 1019.3 hPa | 0 mm | - | - | - |
| 1787732805 | 20° C | 63% | 1019.3 hPa | 0 mm | - | - | - |
| 1787732217 | 20° C | 64% | 1019.2 hPa | 0 mm | - | - | - |
| 1787731606 | 19.44° C | 64% | 1019.1 hPa | 0 mm | - | - | - |
| 1787731005 | 19.44° C | 64% | 1019.1 hPa | 0 mm | - | - | - |
| 1787730415 | 20° C | 63% | 1018.8 hPa | 0 mm | - | - | - |
| 1787729805 | 20° C | 62% | 1018.9 hPa | 0 mm | - | - | - |
| 1787729206 | 21.11° C | 62% | 1018.7 hPa | 0 mm | - | - | - |
| 1787728624 | 20° C | 66% | 1018.8 hPa | 0 mm | - | - | - |
| 1787728005 | 18.89° C | 68% | 1018.6 hPa | 0 mm | - | - | - |
| 1787727406 | 19.44° C | 70% | 1018.6 hPa | 0 mm | - | - | - |
| 1787726823 | 18.33° C | 74% | 1018.5 hPa | 0 mm | - | - | - |
| 1787726206 | 17.78° C | 75% | 1018.6 hPa | 0 mm | - | - | - |
| 1787725607 | 17.78° C | 75% | 1018.7 hPa | 0 mm | - | - | - |
| 1787725026 | 17.22° C | 81% | 1018.7 hPa | 0 mm | - | - | - |
| 1787724406 | 16.67° C | 83% | 1018.7 hPa | 0 mm | - | - | - |
| 1787723806 | 16.67° C | 84% | 1018.7 hPa | 0 mm | - | - | - |
| 1787723157 | 16.11° C | 85% | 1018.6 hPa | 0 mm | - | - | - |
| 1787722546 | 16.11° C | 86% | 1018.7 hPa | 0 mm | - | - | - |
* Rain latest hour (hover to see other rain measurements)
** Current wind speed in m/s (hover to see current wind gust speed)